User: anonymous   Login
Location: Lewisville
(33.0462°N, 96.9942°W)
Time: 18:26:19
(UTC-05:00)
Language:

Tiangong - Orbit

View from above orbital plane
View from above orbital plane
View from above satellite
View from above satellite

Ground track
Ground track

The orbit data is extracted from the following two-line orbital elements,

1 48274U 21035A   21296.86547910  .00025288  00000-0  29815-3 0  9999
2 48274  41.4699 218.3498 0006788 245.5794 180.5604 15.60749710 27823
Epoch (UTC): 23 October 2021 20:46:17
Eccentricity: 0.0006788
inclination: 41.4699°
perigee height: 381 km
apogee height: 390 km
right ascension of ascending node: 218.3498°
argument of perigee: 245.5794°
revolutions per day: 15.60749710
mean anomaly at epoch: 180.5604°
orbit number at epoch: 2782

The dashed part of the orbit path shows where the satellite is in the earth's shadow,  

DLR